Terminal Aerodrome Forecast
Issued by NWS Shreveport, LA

Home | Current Version | Previous Version | Text Only | Print | Product List | Glossary On
Versions: 1 2 3 4 5 6 7 8 9 10 11 12 13 14 15
000
FTUS44 KSHV 232348
TAFGGG
TAF
KGGG 232348Z 2400/2424 19005KT P6SM SCT035
     FM240600 16004KT P6SM VCTS OVC020CB
      TEMPO 2406/2408 20003KT 3SM -TSRA OVC020CB
     FM241200 03006KT 5SM -TSRA OVC020CB
     FM241600 04006KT 6SM -RA OVC015=

USA.gov is the U.S. government's official web portal to all federal, state and local government web resources and services.